Location: French Creek State Gamelands
(40.1750°N, 75.7969°W)
Time: 20:00:40
(UTC-04:00)

ISS - All Passes

Search period start: 26 June 2017 00:00
Search period end: 06 July 2017 00:00
Orbit: 401 x 408 km, 51.6° (Epoch: 27 June)

Date Brightness Start Highest point End Pass type
(mag) Time Alt. Az. Time Alt. Az. Time Alt. Az.
26 Jun - 07:52:59 10° S 07:55:28 20° SE 07:57:59 10° E daylight
26 Jun - 09:28:38 10° WSW 09:31:46 42° NNW 09:34:56 10° NE daylight
26 Jun - 11:07:08 10° NW 11:08:55 14° NNW 11:10:43 10° NNE daylight
26 Jun - 12:45:02 10° NNW 12:46:31 12° N 12:48:00 10° NE daylight
26 Jun - 14:20:48 10° NW 14:23:49 31° NNE 14:26:47 10° E daylight
26 Jun - 15:57:17 10° WNW 16:00:17 32° SW 16:03:15 10° SSE daylight
27 Jun - 07:02:49 10° SE 07:03:31 11° SE 07:04:13 10° ESE daylight
27 Jun - 08:36:17 10° SW 08:39:32 79° NW 08:42:49 10° NE daylight
27 Jun - 10:14:11 10° WNW 10:16:27 17° NNW 10:18:44 10° NNE daylight
27 Jun - 11:52:50 10° NNW 11:53:59 11° N 11:55:09 10° NNE daylight
27 Jun - 13:28:50 10° NNW 13:31:26 21° NNE 13:34:02 10° ENE daylight
27 Jun - 15:04:54 10° WNW 15:08:11 65° SW 15:11:27 10° SE daylight
28 Jun - 07:44:12 10° SW 07:47:22 51° SE 07:50:34 10° ENE daylight
28 Jun - 09:21:19 10° W 09:24:01 23° NNW 09:26:45 10° NNE daylight
28 Jun - 11:00:12 10° NNW 11:01:26 12° N 11:02:39 10° NNE daylight
28 Jun - 12:36:51 10° NNW 12:39:00 16° NNE 12:41:08 10° ENE daylight
28 Jun - 14:12:42 10° NW 14:15:59 65° NE 14:19:15 10° ESE daylight
28 Jun - 15:50:26 10° W 15:52:05 13° SW 15:53:45 10° SSW daylight
29 Jun - 06:52:31 10° SSW 06:55:17 26° SE 06:58:03 10° ENE daylight
29 Jun - 08:28:37 10° W 08:31:40 35° NNW 08:34:43 10° NE daylight
29 Jun - 10:07:17 10° NW 10:08:53 13° N 10:10:29 10° NNE daylight
29 Jun - 11:44:51 10° NNW 11:46:29 13° N 11:48:07 10° NE daylight
29 Jun - 13:20:37 10° NW 13:23:42 36° NNE 13:26:47 10° E daylight
29 Jun - 14:57:18 10° WNW 15:00:04 25° SW 15:02:50 10° SSE daylight
30 Jun - 06:01:33 10° SSE 06:03:15 13° SE 06:04:57 10° E daylight
30 Jun - 07:36:07 10° WSW 07:39:22 63° NW 07:42:37 10° NE daylight
30 Jun - 09:14:17 10° NW 09:16:22 16° NNW 09:18:28 10° NNE daylight
30 Jun - 10:52:42 10° NNW 10:53:55 12° N 10:55:10 10° NNE daylight
30 Jun - 12:28:34 10° NNW 12:31:19 24° NNE 12:34:04 10° E daylight
30 Jun - 14:04:45 10° WNW 14:07:58 50° SW 14:11:10 10° SE daylight
01 Jul - 06:43:54 10° SW 06:47:08 67° SE 06:50:23 10° ENE daylight
01 Jul - 08:21:20 10° WNW 08:23:52 21° NNW 08:26:27 10° NNE daylight
01 Jul - 10:00:11 10° NNW 10:01:20 11° N 10:02:28 10° NNE daylight
01 Jul - 11:36:33 10° NNW 11:38:51 17° NNE 11:41:10 10° ENE daylight
01 Jul - 13:12:28 10° NW 13:15:46 82° NE 13:19:03 10° SE daylight
01 Jul - 14:51:13 10° WSW 14:51:46 10° SW 14:52:18 10° SW daylight
02 Jul - 05:52:02 10° SSW 05:54:59 32° SE 05:57:57 10° ENE daylight
02 Jul - 07:28:31 10° W 07:31:27 30° NNW 07:34:24 10° NE daylight
02 Jul - 09:07:19 10° NW 09:08:45 12° N 09:10:11 10° NNE daylight
02 Jul - 10:44:32 10° NNW 10:46:20 14° NNE 10:48:08 10° NE daylight
02 Jul - 12:20:18 10° NW 12:23:28 44° NNE 12:26:38 10° ESE daylight
02 Jul - 13:57:15 10° W 13:59:44 20° SW 14:02:14 10° S daylight
03 Jul - 05:00:41 10° S 05:02:53 17° SE 05:05:06 10° E visible
03 Jul - 06:35:54 10° WSW 06:39:05 50° NNW 06:42:18 10° NE daylight
03 Jul - 08:14:16 10° NW 08:16:10 14° NNW 08:18:04 10° NNE daylight
03 Jul - 09:52:25 10° NNW 09:53:45 12° N 09:55:06 10° NNE daylight
03 Jul - 11:28:12 10° NW 11:31:05 27° NNE 11:33:58 10° E daylight
03 Jul - 13:04:32 10° WNW 13:07:37 38° SW 13:10:43 10° SSE daylight
04 Jul - 05:43:32 10° SW 05:46:47 85° SE 05:50:04 10° NE daylight
04 Jul - 07:21:14 10° WNW 07:23:38 18° NNW 07:26:01 10° NNE daylight
04 Jul - 09:00:01 10° NNW 09:01:08 11° N 09:02:14 10° NNE daylight
04 Jul - 10:36:08 10° NNW 10:38:36 19° NNE 10:41:04 10° ENE daylight
04 Jul - 12:12:07 10° NW 12:15:25 79° SW 12:18:42 10° SE daylight
05 Jul - 04:51:29 10° SSW 04:54:34 41° SE 04:57:41 10° ENE visible
05 Jul - 06:28:20 10° W 06:31:08 26° NNW 06:33:58 10° NNE daylight
05 Jul - 08:07:12 10° NNW 08:08:30 12° N 08:09:47 10° NNE daylight
05 Jul - 09:44:05 10° NNW 09:46:04 15° NNE 09:48:02 10° NE daylight
05 Jul - 11:19:53 10° NW 11:23:07 54° NNE 11:26:21 10° ESE daylight
05 Jul - 12:57:12 10° W 12:59:17 16° SW 13:01:23 10° S daylight
